Rbgn^[z[y[W
メイン
   新天体発見情報
     Comet C/2023 T3 (Fuls)
投稿するにはまず登録を

スレッド表示 | 古いものから 前のトピック | 次のトピック | 下へ
投稿者 スレッド
佐藤裕久
投稿日時: 2023-11-7 0:15
モデレータ
登録日: 2005-6-12
居住地: 日本
投稿: 2670
オンライン
Comet C/2023 T3 (Fuls)

David Carson Fuls (LPL 月惑星研究所, アリゾナ大学)の通報によると、10月15日、Mt Lemmon
サーベイの1.5-m反射望遠鏡で得た、CCD画像から新彗星を発見した
この彗星は、6".2の非常にこじんまりとしたコマがあり、p.a. 255°に尾がある可能性がある。
小惑星センターのPCCP webpageに公表後、佐藤英貴氏(東京都文京区、10月16.51日UT, 120-秒露
出8枚のスタック, 0.51-m f/6.8 アストログラフ, Utah Desert Remote 天文台, Beryl Junction
近郊, ユタ州, 米国, 遠隔操作:恒星状に見えるだけである。4".9の円形範囲で測定した光度は
19.3等であった)と観測した。

彗星機能の報告は次のとおり、

OC   Date        Reporter           Coma    Tail    PA          Exposures
I52  2023-10-16  J. Hogan           4".2             50-230
G00  2023-10-18  M. Jaeger          9"       12"    294

発見位置は次のとおり、

     2023 UT             R.A. (2000) Decl.       Mag.
     Oct.  9.45275    3 17 11.32   +22 38 04.7   20.4
           9.46493    3 17 11.08   +22 38 03.6   21.0
           9.47714    3 17 10.85   +22 38 02.3   20.8
           9.48956    3 17 10.61   +22 38 00.9   20.8

MPCの楕円軌道要素、位置推算表は次のとおり、

Orbital elements:
    C/2023 T3 (Fuls)                                                            
Epoch 2023 Sept. 13.0 TT = JDT 2460200.5                                        
T 2025 Jan. 28.72477 TT                                 Rudenko                 
q   3.4486774            (2000.0)            P               Q                  
z  +0.0051265      Peri.  305.09121     -0.89994259     +0.13029807             
 +/-0.0160199      Node   245.74842     -0.05799049     -0.98159397             
e   0.9823204      Incl.   27.15228     -0.43213474     -0.13962699             
From 46 observations 2023 Oct. 15-26, mean residual 0".3.                       
                                                                                
Ephemeris:
Date    TT    R. A. (2000) Decl.     Delta      r    Elong.  Phase   m1
2023 09 30    08 01 26.2 +00 55 58   5.8104  5.4707    65.5     9.6  19.7
...
2023 10 15    08 09 04.4 -00 39 12   5.5091  5.3772    77.2    10.4  19.5
...
2023 10 23    08 12 23.1 -01 32 11   5.3446  5.3276    83.7    10.7  19.4
...
2023 10 29    08 14 28.5 -02 12 34   5.2208  5.2905    88.6    10.8  19.3
2023 10 30    08 14 47.4 -02 19 20   5.2002  5.2844    89.4    10.8  19.3
2023 10 31    08 15 05.6 -02 26 06   5.1796  5.2782    90.3    10.8  19.3
...
2023 11 06    08 16 41.5 -03 06 51   5.0566  5.2413    95.3    10.9  19.2
...
2023 11 14    08 18 12.1 -04 01 04   4.8950  5.1922   102.0    10.7  19.1
...
2023 11 29    08 18 58.2 -05 39 34   4.6063  5.1008   114.9    10.1  18.9

(MPEC 2023-U290、CBET 5309)

スレッド表示 | 古いものから 前のトピック | 次のトピック | トップ

投稿するにはまず登録を
 
© 1999 Tsutomu Seki.